Regional Weather Roundup
Issued by NWS

Home | Current Version | Previous Version | Text Only | Print | Product List | Glossary On
Versions: 1 2 3 4 5 6 7 8 9 10 11 12 13 14 15 16 17 18 19 20 21 22 23 24 25 26 27 28 29 30 31 32 33 34 35 36 37 38 39 40 41 42 43 44 45 46 47 48 49 50
000
ASUS45 KREV 271710
RWRNV
NEVADA REGIONAL WEATHER ROUNDUP
NATIONAL WEATHER SERVICE RENO NV
900 AM PST TUE JAN 27 2015

NOTE: "FAIR" INDICATES FEW OR NO CLOUDS BELOW 12,000 FEET WITH NO
SIGNIFICANT WEATHER AND/OR OBSTRUCTIONS TO VISIBILITY.

NVZ001-003-004-271800-
WESTERN NEVADA

CITY           SKY/WX    TMP DP  RH WIND       PRES   REMARKS
RENO           LGT RAIN  45  39  79 E5        30.17R
CARSON CITY    LGT RAIN  43  36  75 CALM      30.19R
PYRAMID LAKE     N/A     46 N/A N/A S2          N/A
FALLON         RAIN      45  42  89 S12       30.16R FOG
LOVELOCK       LGT RAIN  42  40  92 CALM      30.14R FOG
HAWTHORNE      PTSUNNY   46  43  87 CALM      30.18R
$$

NVZ002-CAZ072-073-271800-
NORTHERN AND CENTRAL SIERRA

CITY           SKY/WX    TMP DP  RH WIND       PRES   REMARKS
S. LAKE TAHOE  LGT SNOW  36  31  82 S5        30.21R
TRUCKEE        LGT RAIN  36  34  93 CALM      30.22R
SQUAW VLY 8000   N/A     30  30 100 CALM        N/A
SUSANVILLE     CLOUDY    48  32  53 NW5       30.14R
BLUE CANYON    CLOUDY    42  33  70 SE7       30.24R
MAMMOTH LAKES  LGT RAIN  36  34  93 CALM      30.21S
BRIDGEPORT     CLOUDY    36  33  89 CALM      30.18R
$$

NVZ030-031-036-271800-
NORTHERN NEVADA

CITY           SKY/WX    TMP DP  RH WIND       PRES   REMARKS
ELKO           CLOUDY    40  37  89 W10       30.17R
WINNEMUCCA     CLOUDY    45  35  68 S13       30.11R
WENDOVER       CLOUDY    34  28  80 NE6       30.21F
$$

NVZ035-037-271800-
CENTRAL NEVADA

CITY           SKY/WX    TMP DP  RH WIND       PRES   REMARKS
ELY            CLOUDY    40  36  86 S13       30.23R
EUREKA           N/A     42  34  73 SE13      30.17R
$$

NVZ013-014-271800-
SOUTH CENTRAL NEVADA

CITY           SKY/WX    TMP DP  RH WIND       PRES   REMARKS
TONOPAH        CLOUDY    43  39  86 S10       30.21S
$$

NVZ017-020-022-271800-
SOUTHERN NEVADA

CITY           SKY/WX    TMP DP  RH WIND       PRES   REMARKS
LAS VEGAS      CLOUDY    53  49  86 SE5       30.24R
N. LAS VEGAS   CLOUDY    52  48  86 SE7       30.26S
NELLIS AFB     CLOUDY    54  50  87 VRB5      30.27R
HENDERSON      CLOUDY    52  49  89 NW3       30.28S
MERCURY        CLOUDY    50  47  89 CALM      30.23R
$$


USA.gov is the U.S. government's official web portal to all federal, state and local government web resources and services.